SQ2HCW-13 Weather Reports


Display with metric or nautical units.
time (UTC)temp
F
wind
direction
speed
MPH
gust
MPH
rain 1hr
in
rain 24hr
in
rain mn
in
humidity
%
barometer
mb
20260504225035 58 0.0 0.0 0.00 0.00 0.00 79 997.1
20260504224026 58 0.0 0.0 0.00 0.00 0.00 78 997.2
20260504223023 59 0.0 0.0 0.00 0.00 0.00 77 997.1
20260504222115 59 0.0 0.0 0.00 0.00 0.00 76 996.9
20260504221112 60 0.0 0.0 0.00 0.00 0.00 76 996.9
20260504215120 60 0.0 0.0 0.00 0.00 0.00 74 997.1
20260504214051 61 0.0 0.0 0.00 0.00 0.00 73 997.1
20260504213048 61 0.0 0.0 0.00 0.00 0.00 71 997.1
20260504212039 62 0.0 0.0 0.00 0.00 0.00 71 997.0
20260504211056 62 0.0 0.0 0.00 0.00 0.00 71 997.0
20260504210027 62 0.0 0.0 0.00 0.00 0.00 70 997.0
20260504205024 63 0.0 0.0 0.00 0.00 0.00 70 997.0
20260504204115 63 0.0 0.0 0.00 0.00 0.00 69 997.0
20260504203112 63 0.0 0.0 0.00 0.00 0.00 69 997.1
20260504202123 63 0.0 0.0 0.00 0.00 0.00 69 997.0
20260504201120 63 0.0 0.0 0.00 0.00 0.00 69 997.0
20260504200051 63 0.0 0.0 0.00 0.00 0.00 69 996.9
20260504195048 62 0.0 0.0 0.00 0.00 0.00 71 996.9
20260504194039 62 0.0 0.0 0.00 0.00 0.00 70 996.9
20260504193056 62 0.0 0.0 0.00 0.00 0.00 71 996.8
20260504192027 62 0.0 0.0 0.00 0.00 0.00 73 996.9
20260504191024 63 0.0 0.0 0.00 0.00 0.00 70 996.8
20260504190115 64 0.0 0.0 0.00 0.00 0.00 68 996.8
20260504185112 64 0.0 0.0 0.00 0.00 0.00 66 996.5
20260504184103 64 0.0 0.0 0.00 0.00 0.00 63 996.4
20260504183140 65 0.0 0.0 0.00 0.00 0.00 61 996.4
20260504182524 66 0.0 0.0 0.00 0.00 0.00 60 996.3
20260504181102 68 0.0 0.0 0.00 0.00 0.00 61 996.3
20260504180059 68 0.0 0.0 0.00 0.00 0.00 60 996.3
20260504175600 69 0.0 0.0 0.00 0.00 0.00 57 996.3
20260504174114 71 0.0 0.0 0.00 0.00 0.00 53 996.3
20260504172523 72 0.0 0.0 0.00 0.00 0.00 50 996.2